Simultaneous Nadir Overpasses (SNOs) Predictions

Prediction of SNOs between TERRA and METOP-C Satellite Orbit:

Table of predicted SNOs for the next 14.0 days since TLE Epoch: 10/1/2022
Index Date (TERRA) Time (TERRA) Lat,Lon (TERRA) SZA (TERRA ) Date (METOP-C) Time (METOP-C) Lat,Lon (METOP-C) SZA (METOP-C ) Distance(km) Time Diff (sec)
1 10/03/2022 03:39:02 81.16, 164.89 87.35 10/03/2022 03:38:50 81.15, 164.72 87.32 3.18 12
2 10/03/2022 04:28:28 -81.17, -27.20 92.60 10/03/2022 04:29:29 -81.17, -27.22 92.58 0.48 61
3 10/05/2022 22:23:43 -81.12, 63.09 91.66 10/05/2022 22:22:30 -81.11, 62.94 91.71 2.62 73
4 10/05/2022 23:13:08 81.14,-128.88 88.42 10/05/2022 23:13:08 81.15,-128.85 88.42 0.77 0
5 10/06/2022 00:02:34 -81.16, 39.04 91.53 10/06/2022 00:03:48 -81.16, 38.92 91.51 2.18 74
6 10/08/2022 17:57:49 -81.12, 129.56 90.57 10/08/2022 17:56:49 -81.12, 129.40 90.61 2.70 60
7 10/08/2022 18:47:14 81.14, -62.44 89.50 10/08/2022 18:47:27 81.15, -62.47 89.51 0.64 13
8 10/11/2022 13:31:54 -81.13,-163.77 89.46 10/11/2022 13:31:07 -81.13,-163.82 89.49 0.91 47
9 10/11/2022 14:21:19 81.16, 4.22 90.61 10/11/2022 14:21:45 81.16, 4.24 90.63 0.49 26
10 10/14/2022 09:05:58 -81.14, -97.25 88.39 10/14/2022 09:05:24 -81.14, -97.10 88.38 2.64 34



Historial Predications of SNOs between TERRA and METOP-C
